This is the latest recevied weather packets stored in our database for station/object W3TMB. If no packets are shown the sender has not sent any weather packets the latest 10 day(s).
| Time | Temp. | Humidity | Pressure | Rain* | Wind** | Luminosity | Snow |
|---|---|---|---|---|---|---|---|
| 1777853317 | 13.33° C | 43% | 1009.6 hPa | 0 mm | - | 1 W/m² | - |
| 1777853015 | 13.89° C | 42% | 1009.5 hPa | 0 mm | - | 3 W/m² | - |
| 1777852712 | 13.89° C | 42% | 1009.4 hPa | 0 mm | - | 6 W/m² | - |
| 1777852410 | 13.89° C | 41% | 1009.5 hPa | 0 mm | - | 8 W/m² | - |
| 1777852107 | 14.44° C | 41% | 1009.3 hPa | 0 mm | - | 11 W/m² | - |
| 1777851805 | 14.44° C | 41% | 1009.5 hPa | 0 mm | - | 15 W/m² | - |
| 1777851502 | 14.44° C | 39% | 1009.4 hPa | 0 mm | - | 18 W/m² | - |
| 1777851198 | 15° C | 39% | 1009.5 hPa | 0 mm | - | 22 W/m² | - |
| 1777850895 | 15° C | 38% | 1009.2 hPa | 0 mm | - | 29 W/m² | - |
| 1777850592 | 15° C | 38% | 1009.3 hPa | 0 mm | - | 30 W/m² | - |
| 1777850290 | 15° C | 38% | 1009.3 hPa | 0 mm | - | 31 W/m² | - |
| 1777849987 | 15.56° C | 38% | 1009.3 hPa | 0 mm | - | 42 W/m² | - |
| 1777849682 | 15.56° C | 37% | 1009.3 hPa | 0 mm | - | 49 W/m² | - |
| 1777849380 | 15.56° C | 37% | 1009.3 hPa | 0 mm | - | 56 W/m² | - |
| 1777849077 | 15.56° C | 37% | 1009.1 hPa | 0 mm | - | 62 W/m² | - |
| 1777848772 | 16.11° C | 37% | 1009.1 hPa | 0 mm | - | 48 W/m² | - |
| 1777848469 | 16.11° C | 37% | 1009.1 hPa | 0 mm | - | 98 W/m² | - |
| 1777848167 | 15.56° C | 36% | 1009.1 hPa | 0 mm | - | 108 W/m² | - |
| 1777847864 | 15.56° C | 39% | 1009.2 hPa | 0 mm | - | 60 W/m² | - |
| 1777847562 | 16.11° C | 36% | 1009.1 hPa | 0 mm | - | 106 W/m² | - |
| 1777847258 | 16.11° C | 37% | 1009.1 hPa | 0 mm | - | 192 W/m² | - |
| 1777846956 | 15.56° C | 37% | 1009.1 hPa | 0 mm | - | 159 W/m² | - |
| 1777846654 | 15.56° C | 39% | 1009.2 hPa | 0 mm | - | 88 W/m² | - |
| 1777846352 | 15.56° C | 38% | 1009.3 hPa | 0 mm | - | 75 W/m² | - |
| 1777846048 | 15.56° C | 39% | 1009.4 hPa | 0 mm | - | 85 W/m² | - |
* Rain latest hour (hover to see other rain measurements)
** Current wind speed in m/s (hover to see current wind gust speed)